Location: La Fredeussais
(48.1780°N, 1.3980°W)
Time: 16:40:16
(UTC+00:00)

Cosmos 1937 Rocket - Pass Details

Date: 09 May 2021
Orbit: 745 x 781 km, 74.0° (Epoch: 24 June)

Event Time Altitude Azimuth Distance (km) Brightness Sun altitude
Exits shadow 23:26:09 61° 210° (SSW) 850 3.4 -23.7°
Maximum altitude 23:27:05 85° 291° (WNW) 758 3.4 -23.7°
Drops below altitude 10° 23:32:16 10° 22° (NNE) 2,286 6.8 -23.9°
Sets 23:34:39 0° 23° (NNE) 3,220 7.7 -23.9°
